Weather History for Ithaca, NY

Change the Weather History Date:

Sunday, November 27, 2011

  Actual Average Record
Temperature  
Mean Temperature 53 °F -  
Max Temperature 59 °F 43 °F 63 °F (1979)
Min Temperature 47 °F 28 °F 8 °F (1996)
Degree Days  
Heating Degree Days 12    
Growing Degree Days 3 (Base 50)    
Moisture  
Dew Point 39 °F    
Average Humidity 57    
Maximum Humidity 69    
Minimum Humidity 48    
Precipitation  
Precipitation 0.00 in - - ()
Sea Level Pressure  
Sea Level Pressure 30.02 in    
Wind  
Wind Speed 11 mph (SSE)    
Max Wind Speed 17 mph    
Max Gust Speed 22 mph    
Visibility 10 miles    
Events Rain    
Averages and records for this station are not official NWS values.
T = Trace of Precipitation, MM = Missing Value Source: NWS Daily Summary

Daily Weather History Graph

Daily Weather History Graph

Search for Another Location

Airport:

Trip Planner

Search our weather history database for the weather conditions in past years. The results will help you decide how hot, cold, wet, or windy it might be!

Date:

Astronomy

Nov. 27, 2011 Rise Set
Actual Time 7:11 AM EST 4:35 PM EST
Civil Twilight 6:39 AM EST 5:06 PM EST
Nautical Twilight 6:05 AM EST 5:41 PM EST
Astronomical Twilight 5:31 AM EST 6:15 PM EST
Moon 9:34 AM EST (11/27) 7:11 PM EST (11/27)
Length of Visible Light 10h 26m
Length of Day
9h 24m
Waxing Crescent, 8% of the Moon is Illuminated
Nov 27
Waxing Crescent
Dec 2
First Quarter
Dec 10
Full
Dec 17
Last Quarter
Dec 24
New

Hourly Weather History & Observations

Time (EST) Temp. Dew Point Humidity Pressure Visibility Wind Dir Wind Speed Gust Speed Precip Events Conditions
12:56 AM 47.8 °F 34.9 °F 61% 30.12 in 10.0 mi SSE 6.9 mph - N/A   Clear
1:56 AM 48.9 °F 34.9 °F 58% 30.10 in 10.0 mi SSE 11.5 mph - N/A   Clear
2:56 AM 48.9 °F 34.9 °F 58% 30.09 in 10.0 mi SSE 13.8 mph - N/A   Clear
4:56 AM 47.8 °F 34.0 °F 59% 30.07 in 10.0 mi South 11.5 mph - N/A   Clear
6:23 AM 48.2 °F 33.8 °F 58% 30.03 in 10.0 mi SSE 11.5 mph - N/A   Clear
7:56 AM 47.8 °F 32.9 °F 56% 30.05 in 10.0 mi SSE 9.2 mph - N/A   Clear
8:56 AM 50.0 °F 34.0 °F 54% 30.05 in 10.0 mi SSE 9.2 mph - N/A   Clear
9:56 AM 50.9 °F 34.0 °F 52% 30.06 in 10.0 mi South 10.4 mph - N/A   Mostly Cloudy
10:56 AM 52.9 °F 36.0 °F 53% 30.05 in 10.0 mi South 11.5 mph - N/A   Scattered Clouds
11:56 AM 54.9 °F 36.9 °F 51% 30.01 in 10.0 mi South 9.2 mph - N/A   Scattered Clouds
12:56 PM 56.8 °F 38.8 °F 51% 29.99 in 10.0 mi SSE 10.4 mph - N/A   Scattered Clouds
1:56 PM 56.8 °F 38.8 °F 51% 29.98 in 10.0 mi SE 11.5 mph - N/A   Mostly Cloudy
2:56 PM 57.9 °F 38.8 °F 49% 29.96 in 10.0 mi SE 17.3 mph - N/A   Mostly Cloudy
3:56 PM 59.9 °F 39.9 °F 48% 29.95 in 10.0 mi SSE 12.7 mph - N/A   Scattered Clouds
4:56 PM 56.8 °F 39.9 °F 53% 29.98 in 10.0 mi SE 13.8 mph 19.6 mph N/A   Mostly Cloudy
5:56 PM 57.9 °F 43.0 °F 58% 29.99 in 10.0 mi South 8.1 mph 17.3 mph N/A   Overcast
6:56 PM 56.8 °F 43.9 °F 62% 29.97 in 10.0 mi SSE 11.5 mph 21.9 mph 0.00 in Rain Light Rain Showers
7:56 PM 56.8 °F 45.0 °F 64% 29.97 in 10.0 mi South 17.3 mph - 0.00 in   Mostly Cloudy
8:56 PM 56.8 °F 45.9 °F 67% 29.97 in 10.0 mi South 12.7 mph - N/A   Mostly Cloudy
9:56 PM 56.8 °F 46.9 °F 69% 29.97 in 10.0 mi SSE 12.7 mph - N/A   Overcast
10:56 PM 56.8 °F 46.9 °F 69% 29.96 in 10.0 mi South 12.7 mph - N/A   Overcast